Lid_Strength_Index
-2 -2 -2 -2 -1 -1 -1 -1 -1 -1 -1 -1 -1 -1 -1 -1 -1 -0 0 -0 0 0 -1 -0 -1 -1 3 8 8 5 -3 -0 3 4 5 5 6 6 8 8 7 8 7 6 5 5 6
-2 -2 -2 -2 -2 -2 -1 -1 -1 -1 -1 -1 -1 -1 -1 -1 -1 0 0 -0 0 0 -0 -0 -1 -1 5 10 6 3 4 5 4 4 5 4 6 5 7 8 8 8 7 7 7 6 7
-1 -1 -1 -1 -1 -1 -1 -1 -0 -0 -1 -1 -1 -1 -1 -0 -0 1 0 -0 0 0 -0 -0 -1 2 7 9 5 5 5 6 5 4 5 4 4 5 6 8 7 8 9 8 8 7 7
1 1 0 -0 -0 -0 -0 -0 0 0 0 -0 -0 0 0 0 0 1 0 0 0 0 -0 -0 -1 5 9 6 5 5 5 6 5 4 3 3 3 5 6 6 8 10 10 11 9 8 7
2 1 1 1 1 1 1 1 1 1 1 0 0 1 1 1 1 1 1 1 0 0 -0 -1 4 6 10 3 8 7 5 7 6 5 4 4 4 7 7 9 11 11 13 13 12 9 9
2 2 2 1 1 1 1 1 1 1 1 1 1 1 1 1 1 1 1 1 1 1 1 2 5 10 8 9 8 7 6 6 6 6 6 7 8 10 10 10 15 14 14 13 13 11 10
3 3 2 2 2 1 1 1 1 1 1 1 1 2 2 1 1 1 4 6 8 9 7 10 10 11 9 8 7 8 7 7 6 8 11 9 11 13 12 11 12 13 14 14 12 10 12
3 3 3 3 3 3 2 2 2 2 2 2 2 2 2 2 2 2 5 7 7 7 10 7 8 8 7 7 9 9 7 9 9 11 10 11 13 11 11 11 11 12 13 13 12 10 12
3 3 3 3 3 3 3 3 3 3 3 3 3 2 2 2 2 6 6 6 5 6 11 10 8 8 8 7 9 9 8 9 10 12 12 14 12 11 11 12 13 13 14 13 13 12 11
3 4 4 4 4 3 3 3 3 3 3 3 3 3 3 3 7 8 6 4 5 7 14 12 10 9 9 8 10 8 8 9 10 12 13 12 11 11 12 13 12 15 12 12 13 14 15
4 4 4 4 4 4 4 4 4 3 3 4 4 4 4 5 9 7 6 5 6 9 18 11 11 7 9 10 10 9 8 8 12 12 11 12 12 11 12 11 11 12 11 12 12 13 14
4 4 4 4 4 4 4 4 4 3 3 4 4 4 4 6 8 7 7 7 9 15 18 12 10 10 11 11 11 9 9 8 9 11 11 11 10 10 11 10 10 9 11 12 13 13 16
4 4 4 5 5 5 4 4 4 4 4 4 4 4 5 5 8 6 8 10 15 18 12 13 12 11 12 12 12 11 11 12 14 15 15 14 13 11 10 11 11 11 13 16 17 17 16
4 4 5 5 5 5 4 4 4 3 4 4 4 4 4 7 7 7 10 13 18 14 14 11 11 12 13 12 12 12 12 14 11 13 15 16 16 12 10 11 12 12 12 15 18 17 16
4 5 5 5 5 4 4 3 4 3 4 4 5 7 8 8 7 9 12 17 16 14 12 12 12 14 14 12 12 13 13 13 11 11 14 15 15 10 9 9 10 12 13 11 14 13 16
5 4 4 5 4 4 4 3 3 3 4 5 7 8 9 9 8 10 13 15 14 12 13 12 15 13 15 14 14 15 15 11 11 11 9 12 16 11 10 9 10 10 10 14 13 19 19
4 4 4 4 4 4 4 3 4 4 4 6 9 11 9 10 9 11 16 15 12 12 14 14 13 14 14 16 15 16 15 14 13 14 11 12 13 14 13 14 14 14 15 14 12 13 19
4 4 4 4 4 4 4 4 4 4 5 9 12 15 10 10 13 15 16 14 12 14 14 14 13 15 15 16 17 15 15 15 13 13 15 13 14 18 17 13 12 13 13 14 17 18 16
4 4 4 4 4 4 4 4 4 5 7 12 14 15 12 12 19 20 18 16 14 16 15 15 15 14 15 16 19 16 16 13 13 14 15 14 17 21 20 17 15 16 15 14 13 12 16
4 4 4 4 4 4 4 5 5 5 6 13 16 19 16 15 16 18 19 18 18 14 15 15 15 15 16 17 16 18 17 14 14 13 11 12 15 17 21 19 15 18 16 14 13 15 15
4 4 4 4 5 5 5 5 5 5 7 13 16 17 16 20 18 17 18 18 18 17 15 16 16 16 17 19 18 18 17 16 14 12 13 14 18 16 16 16 15 15 15 13 12 12 15
4 4 4 4 4 5 5 5 5 5 7 12 16 17 17 17 17 19 18 18 17 16 16 17 17 16 16 18 17 19 17 16 16 14 14 14 18 16 18 16 15 16 12 11 11 10 11
5 5 5 4 5 5 5 5 5 6 9 13 14 13 17 17 18 20 19 17 17 16 16 15 15 16 17 16 15 14 13 14 14 15 16 16 17 18 21 16 15 16 11 10 10 9 9
5 5 4 4 5 5 5 5 5 5 8 12 13 14 18 19 18 18 16 16 16 16 17 15 15 16 15 13 13 14 15 15 14 14 13 16 16 17 19 16 19 11 8 8 9 9 8
5 4 4 4 5 5 6 5 5 5 7 11 12 13 16 19 17 17 16 16 16 15 15 15 14 13 13 15 17 19 18 18 17 15 15 13 15 17 17 16 13 11 9 9 10 11 8
5 4 4 5 5 5 5 5 5 5 6 11 11 12 14 17 18 15 16 16 17 17 16 15 13 13 13 15 17 25 23 20 20 17 14 14 13 13 13 17 19 11 8 7 7 14 8
4 5 5 5 5 5 6 6 5 5 6 10 11 11 13 17 15 15 17 17 15 16 15 15 14 14 14 17 19 21 21 18 20 19 18 16 15 15 14 16 13 9 8 6 14 13 7
4 5 5 5 6 5 6 5 5 5 5 8 9 9 12 16 15 13 13 15 14 14 16 15 16 16 16 17 18 19 20 18 18 17 16 15 16 15 14 16 17 7 7 11 8 6 6
4 5 5 5 5 5 6 6 6 5 5 6 9 8 8 10 13 11 11 11 10 12 13 13 15 15 14 16 17 17 18 18 17 19 13 15 11 12 12 12 8 7 7 6 5 6 6